RH
66 56 37 25 20 19 18 19 20 22 65 79 91 95 92 64 52 47 34 28 28 30 34 36 41 48 53 51 47 47 49 52 55 62 72 80 95 100 100 98 83 90 67
42 31 24 20 19 18 18 16 20 33 100 96 73 82 85 74 72 63 45 34 33 34 35 35 34 41 48 57 66 75 81 82 82 90 88 96 98 77 72 73 64 66 72
32 25 21 18 18 17 16 18 20 32 70 92 96 100 93 74 75 78 71 58 49 50 49 49 44 40 38 36 38 41 43 53 53 47 45 46 49 53 64 69 69 71 74
29 22 22 20 21 18 18 17 19 23 31 38 47 55 61 64 77 77 80 76 67 67 72 72 72 74 74 69 65 65 65 66 69 72 74 73 70 68 69 84 90 100 92
27 24 24 23 22 22 20 17 17 18 19 20 20 23 26 31 34 30 25 26 23 24 26 27 28 29 29 37 40 40 40 46 39 38 50 72 76 68 63 69 75 64 56
26 30 25 25 24 23 21 20 20 20 21 21 21 20 19 18 18 17 17 19 19 20 20 20 20 21 23 24 24 23 24 26 27 29 32 36 42 50 57 61 80 78 70
32 31 27 31 29 26 25 25 24 22 22 25 26 25 24 22 21 19 18 17 18 18 16 17 17 16 17 17 19 22 24 24 28 34 48 55 71 70 68 66 70 60 58
33 30 30 33 33 28 26 26 27 27 27 29 31 28 26 24 23 22 20 18 17 16 17 19 19 18 17 16 20 23 24 27 40 56 75 82 92 92 84 70 48 44 46
34 35 36 32 34 33 32 32 34 34 32 33 31 27 25 25 25 25 24 23 21 19 18 19 19 19 18 20 24 24 34 45 84 97 94 91 81 64 65 56 46 31 25
54 46 42 39 39 35 36 36 34 30 29 31 30 26 25 25 25 25 25 26 25 22 21 20 21 20 25 30 31 46 73 94 100 90 80 84 72 58 51 38 35 33 30
50 42 40 35 37 39 41 38 32 30 30 29 28 27 26 26 26 25 25 26 25 24 22 22 23 26 30 43 63 86 93 80 78 83 71 63 55 45 34 33 34 32 30
41 36 36 40 42 35 34 31 32 32 30 28 28 28 27 27 26 26 27 26 26 23 23 24 27 39 56 64 81 92 84 76 67 59 60 49 34 32 33 32 30 23 23
37 37 39 43 38 37 36 35 34 34 31 30 29 29 27 25 25 25 24 25 23 24 26 31 43 60 66 78 92 86 68 54 56 54 40 30 30 31 28 24 23 20 16
39 37 39 40 40 38 36 36 35 32 31 30 30 29 27 25 23 25 25 24 24 26 35 44 62 68 73 77 70 58 56 59 49 35 31 32 29 24 22 23 16 13 8
39 40 40 40 40 38 37 34 30 29 31 32 31 30 27 24 25 25 23 24 28 36 45 60 75 76 69 63 53 57 54 45 40 37 31 25 23 23 19 14 8 7 6
41 43 42 40 37 35 34 31 31 31 32 33 32 30 26 25 25 24 25 32 40 50 56 64 70 61 55 57 54 44 41 42 33 27 25 26 24 20 12 7 6 6 5
32 32 32 32 32 31 28 31 32 33 34 34 31 26 26 26 25 30 38 41 51 58 63 59 52 54 55 46 43 46 40 32 28 26 25 25 15 9 6 6 6 5 4
33 32 32 30 27 29 33 35 37 37 35 29 26 27 27 29 36 40 54 54 55 56 53 56 55 46 43 48 47 38 33 30 30 29 21 12 8 6 6 5 5 5 4
30 30 30 32 37 40 39 39 37 30 25 27 29 30 37 44 48 50 52 55 53 58 59 48 43 46 48 41 35 32 35 34 28 18 11 7 7 6 5 4 4 4 4
43 44 45 43 41 38 34 28 24 28 33 34 36 49 55 50 51 56 56 54 58 54 42 43 46 45 42 35 36 34 28 22 14 10 8 7 5 5 5 4 4 4 3
41 38 35 31 28 25 26 31 34 38 46 54 56 50 48 48 49 51 50 55 45 43 45 48 46 37 35 39 38 31 17 10 8 7 6 5 5 5 4 4 4 3 3
26 26 26 26 28 32 35 42 42 52 57 56 50 47 50 51 47 49 49 44 44 50 52 44 38 36 41 40 28 16 10 8 6 5 5 5 4 4 4 4 3 3 3
26 27 31 32 46 53 56 56 60 59 57 54 50 46 43 45 49 45 45 51 54 52 43 38 35 38 36 24 14 8 8 6 5 4 4 4 4 4 4 3 3 3 3
33 48 59 61 68 69 69 63 62 58 53 48 46 48 50 45 44 51 55 55 52 40 38 36 37 29 21 13 8 7 6 5 5 5 4 4 4 4 4 3 3 3 3
71 79 78 78 80 64 61 60 51 46 43 51 53 47 44 52 57 59 58 52 45 39 35 32 23 16 10 8 6 5 5 4 5 4 5 4 4 3 3 3 3 3 4
82 93 89 77 67 64 59 49 45 56 59 51 46 50 57 57 62 60 63 52 44 39 32 21 12 8 7 6 5 5 5 4 4 4 4 4 3 3 3 3 4 5 5
Wind_Speed
37 35 35 34 33 34 35 33 35 39 34 33 35 37 39 37 37 39 38 36 37 39 41 42 42 43 45 46 47 48 50 52 52 55 58 61 66 68 72 73 75 76 77
34 32 34 35 36 35 35 38 36 33 34 33 33 36 39 39 40 40 39 39 38 40 42 42 44 47 48 50 52 54 56 58 60 61 63 66 72 74 76 76 77 77 80
34 34 32 29 31 32 36 34 29 29 36 37 37 36 38 41 40 40 41 41 42 42 42 45 46 47 48 50 52 56 58 62 66 67 67 68 70 72 76 79 83 85 87
35 35 30 26 26 27 28 26 27 26 27 30 34 38 41 42 42 42 44 45 46 47 47 47 48 49 50 53 56 58 61 63 67 71 74 75 75 77 75 80 86 89 92
38 36 31 30 30 27 27 26 26 26 26 28 30 30 32 35 38 40 42 45 47 49 49 51 53 55 56 58 61 63 65 67 69 72 76 80 84 87 87 83 89 93 93
40 34 31 30 29 29 28 27 27 29 29 29 31 33 35 37 40 43 45 47 50 52 54 54 56 58 59 61 64 67 68 70 73 76 77 81 86 89 90 88 89 90 95
39 35 32 31 31 30 29 30 31 32 34 36 37 38 41 44 47 49 50 53 55 58 59 60 62 64 66 68 70 72 75 76 80 81 84 87 88 89 91 94 96 97 98
40 36 33 34 33 34 34 35 35 35 38 40 42 44 47 50 53 55 58 60 61 63 65 66 68 69 70 72 73 77 80 82 84 86 87 88 93 97 102 104 106 101 102
38 36 35 36 37 35 35 37 37 38 42 45 47 49 52 56 59 62 64 65 68 69 70 72 74 75 75 76 78 82 85 86 86 87 91 95 99 100 107 112 112 111 104
39 36 35 36 35 34 35 37 39 43 47 49 52 55 59 62 64 68 71 73 74 75 76 78 79 80 80 81 84 84 86 87 90 93 96 100 105 109 109 107 111 118 122
38 38 37 36 35 37 39 42 45 48 51 53 57 61 66 68 70 73 75 78 80 80 81 83 83 83 84 86 87 87 89 91 93 98 102 106 106 104 108 113 118 123 130
39 39 40 40 40 41 43 46 51 55 57 60 64 67 70 74 76 79 81 83 83 85 85 86 85 86 88 89 90 91 93 97 100 104 107 103 106 111 116 120 124 128 133
43 44 45 44 44 47 49 53 57 60 63 66 69 72 75 79 81 83 85 85 87 87 87 86 88 90 91 92 94 94 97 102 107 104 104 108 113 119 123 127 131 135 136
47 48 50 50 52 52 55 59 63 66 69 71 74 77 81 84 86 87 87 88 89 88 88 90 92 93 95 96 95 99 104 104 103 106 111 117 122 126 130 133 135 136 132
50 52 54 54 56 59 63 67 70 71 73 75 78 82 85 89 88 89 90 89 88 89 91 93 94 96 96 98 102 102 100 104 107 113 119 124 129 133 136 138 134 127 117
56 56 58 61 64 67 70 73 73 74 77 80 83 87 90 90 90 91 89 88 90 92 94 95 94 95 101 101 98 101 104 110 115 120 125 131 134 138 138 130 122 117 114
59 60 63 66 69 72 74 75 78 80 83 84 88 91 91 90 89 88 88 91 92 95 93 94 98 99 97 97 102 108 113 118 123 129 132 136 138 133 123 115 113 112 109
65 67 69 71 72 74 76 80 82 84 86 89 90 90 89 88 87 88 90 92 92 92 96 97 95 93 99 103 110 115 120 125 130 135 138 136 128 119 114 109 105 101 97
66 68 69 72 75 79 81 83 86 88 90 89 88 85 85 85 87 87 89 92 93 96 94 92 96 99 105 111 116 121 126 130 135 138 136 126 117 113 109 101 91 88 85
69 72 75 77 80 82 84 86 87 86 83 81 82 81 84 86 87 89 91 93 92 91 93 97 102 107 111 118 124 128 131 134 133 130 122 117 112 106 99 89 84 79 77
74 77 79 80 82 85 83 82 80 76 77 78 80 83 84 85 87 90 91 90 91 94 99 104 110 114 120 126 131 135 136 132 122 114 109 105 101 94 88 83 77 72 69
76 78 81 82 79 76 73 73 75 75 77 78 79 83 84 86 88 89 89 92 96 102 108 112 116 121 126 132 135 136 129 120 112 105 100 95 90 85 80 75 71 66 62
77 75 71 68 67 68 69 71 72 75 76 78 81 83 85 85 85 87 92 98 104 109 113 118 122 126 131 134 133 125 117 109 103 98 93 87 81 76 72 67 64 60 55
63 60 62 65 64 64 68 70 72 74 77 80 81 80 78 81 87 93 99 105 111 114 120 124 127 130 132 128 121 112 105 100 95 91 86 81 75 68 65 60 56 52 47
58 58 58 60 64 68 69 71 74 76 79 76 74 77 82 88 94 101 107 112 118 122 125 129 131 129 123 116 107 101 95 90 86 81 78 73 68 62 57 53 47 43 39
53 56 60 65 68 70 72 74 75 71 68 72 77 82 89 95 101 107 113 120 124 128 132 134 128 120 112 103 97 92 89 84 80 75 71 66 61 57 52 46 41 36 34
Wind_Direction
246 250 256 257 260 261 267 269 277 281 272 273 274 276 283 287 290 291 293 292 291 292 293 292 289 287 285 283 281 280 279 279 277 276 277 278 279 280 280 280 282 282 283
241 248 250 251 257 263 261 272 274 277 270 275 275 277 281 285 288 290 294 292 294 296 298 298 295 290 287 285 284 283 284 283 283 282 280 279 281 281 282 283 282 281 281
237 241 241 249 252 256 265 269 275 280 272 273 281 286 283 288 294 296 296 297 294 295 297 297 295 293 291 290 289 287 286 285 285 283 281 280 280 281 284 286 286 285 285
235 236 238 241 248 255 263 266 273 281 287 288 289 289 286 287 291 294 295 295 296 293 293 293 291 291 291 291 290 289 288 287 287 289 288 285 283 280 278 282 283 285 287
232 234 237 244 251 259 264 270 274 278 281 286 290 294 295 295 295 294 293 293 293 292 291 291 291 290 290 289 288 287 285 285 286 287 287 287 286 285 284 281 282 284 284
228 232 237 248 253 261 266 273 280 284 290 293 298 302 302 301 299 298 297 295 295 296 295 293 292 293 292 291 291 293 293 292 292 292 290 289 288 287 287 287 287 285 284
229 233 238 250 256 262 269 277 282 288 291 296 299 301 303 304 305 304 303 302 301 299 300 299 299 297 295 296 295 296 296 296 295 293 292 292 292 292 292 290 287 285 286
231 234 242 249 258 265 273 280 285 291 294 297 300 303 304 304 304 305 306 304 304 303 302 300 300 300 300 299 297 297 297 297 295 295 294 294 294 293 291 291 291 289 287
231 238 246 254 263 270 277 282 289 294 296 298 301 304 304 305 304 304 304 305 304 303 302 302 301 302 301 300 300 300 299 298 296 294 294 294 294 295 295 292 291 291 289
235 243 249 255 265 272 278 284 291 296 297 299 301 303 304 305 306 304 304 304 304 302 303 302 302 303 301 301 300 299 299 296 295 295 296 297 296 294 293 293 292 293 293
236 242 250 257 267 274 281 286 290 294 297 300 300 301 304 305 305 305 304 304 303 303 303 302 302 302 301 301 300 298 296 298 298 297 296 295 296 295 293 294 295 295 294
237 245 252 260 269 276 281 285 288 292 298 299 299 302 303 304 305 305 304 304 303 302 302 302 301 301 301 300 298 298 299 298 299 298 297 296 294 295 296 296 296 297 297
240 249 258 265 272 276 280 284 288 293 296 298 300 301 303 304 304 304 303 302 302 302 302 301 301 300 300 299 300 299 300 300 299 298 296 296 296 297 297 298 299 300 302
244 251 258 265 270 275 280 284 289 293 295 298 299 301 302 303 303 302 302 301 302 302 301 301 300 299 299 300 301 301 301 299 298 298 298 298 299 299 300 302 303 305 304
249 254 260 266 273 279 283 287 290 291 294 296 298 299 300 301 301 300 300 300 300 300 301 300 298 299 301 302 302 301 301 300 300 300 300 301 302 303 305 306 306 306 304
256 262 267 271 276 280 284 287 289 291 294 296 297 299 299 299 299 299 299 300 300 300 300 300 301 302 302 302 302 302 302 302 301 301 303 304 306 307 307 308 308 307 306
262 267 271 275 279 281 284 287 289 291 294 295 296 297 297 298 298 298 299 300 300 300 301 301 302 302 303 303 304 304 304 304 305 305 307 308 308 309 309 309 309 308 306
264 268 272 275 278 281 283 287 290 292 293 295 295 295 296 296 298 299 299 300 300 300 301 302 303 304 304 305 305 306 307 308 308 309 308 310 310 309 309 309 309 307 306
269 272 275 278 281 284 286 288 290 292 293 292 294 294 295 298 298 299 299 300 301 302 303 303 304 305 306 306 307 309 310 310 309 309 311 310 310 309 309 309 309 308 307
271 274 277 280 281 284 286 288 290 290 291 291 293 296 297 297 297 298 300 302 303 302 303 304 306 308 308 309 311 310 309 309 310 312 311 310 310 310 311 310 310 309 307
272 275 277 280 282 285 286 286 288 287 289 293 295 296 297 297 298 300 301 302 302 303 305 307 308 309 312 312 311 310 310 311 313 311 309 310 311 311 311 311 310 310 310
275 278 280 282 282 283 284 284 287 291 293 294 295 297 298 299 300 301 301 302 304 306 308 308 310 312 312 312 311 311 312 313 312 311 311 312 312 313 312 312 311 312 313
276 277 278 279 281 282 286 289 291 292 293 295 297 299 299 300 301 301 303 305 307 307 309 311 312 313 312 311 312 313 313 312 312 313 313 314 314 314 313 314 314 314 316
273 275 277 279 284 286 288 290 292 294 295 297 299 300 300 300 302 304 306 307 307 309 311 312 313 312 312 312 313 314 313 313 314 315 315 315 315 316 315 316 316 317 317
275 279 281 283 286 288 289 291 293 295 297 298 298 300 301 302 305 306 307 308 310 311 312 313 313 312 312 313 313 312 313 315 316 315 316 316 317 317 318 319 319 317 318
278 279 281 284 286 289 291 293 296 296 296 298 299 301 303 305 306 307 308 310 312 313 313 313 313 313 314 314 315 316 317 318 317 318 318 319 319 320 321 322 321 321 322